Regional Weather Roundup
Issued by NWS Little Rock, AR

Home | Current Version | Previous Version | Text Only | Print | Product List | Glossary On
Versions: 1 2 3 4 5 6 7 8 9 10 11 12 13 14 15 16 17 18 19 20 21 22 23 24 25 26 27 28 29 30 31 32 33 34 35 36 37 38 39 40 41 42 43 44 45 46 47 48 49 50
000
ASUS44 KLZK 230605
RWRLZK

WEATHER ROUNDUP FOR ARKANSAS
NATIONAL WEATHER SERVICE LITTLE ROCK AR
1200 AM CST SUN NOV 23 2014

NOTE: "FAIR" INDICATES FEW OR NO CLOUDS BELOW 12,000 FEET WITH NO
SIGNIFICANT WEATHER AND/OR OBSTRUCTIONS TO VISIBILITY.

ARZ001-003-010-029-230700-
NORTHWEST ARKANSAS

CITY           SKY/WX    TMP DP  RH WIND       PRES   REMARKS
FAYETTEVILLE   CLOUDY    58  54  86 S17G23    29.73F
6HR MIN TEMP:  52; 6HR MAX TEMP:  58; 6HR PCP:  0.01;

FORT SMITH     CLOUDY    53  51  93 E7        29.74F
6HR MIN TEMP:  52; 6HR MAX TEMP:  54;

HARRISON       CLOUDY    54  52  93 SE14      29.79F
6HR MIN TEMP:  51; 6HR MAX TEMP:  54;

BENTONVILLE    MOCLDY    55  50  82 S13       29.73F
6HR MIN TEMP:  54; 6HR MAX TEMP:  55; 6HR PCP:  0.08;

ROGERS         MOCLDY    55  52  89 SE17G23   29.73F
6HR MIN TEMP:  53; 6HR MAX TEMP:  55; 6HR PCP:  0.08;

SILOAM SPGS    MOCLDY    55  48  76 SE17G23   29.72F
6HR MIN TEMP:  54; 6HR MAX TEMP:  55;

HIGHFILL       CLOUDY    55  50  83 SE9       29.72F
6HR MIN TEMP:  53; 6HR MAX TEMP:  55; 6HR PCP:  0.13;

$$

ARZ004-005-016-230700-
NORTH CENTRAL ARKANSAS

CITY           SKY/WX    TMP DP  RH WIND       PRES   REMARKS
BATESVILLE     CLOUDY    55  48  76 SE7       29.87F
6HR MIN TEMP:  50; 6HR MAX TEMP:  55;

FLIPPIN        PTCLDY    54  48  82 SE6       29.82F
6HR MIN TEMP:  50; 6HR MAX TEMP:  55;

MTN HOME       PTCLDY    51  49  92 SE6       29.81F
6HR MIN TEMP:  50; 6HR MAX TEMP:  51;

$$

ARZ040-041-230700-
WEST CENTRAL ARKANSAS

CITY           SKY/WX    TMP DP  RH WIND       PRES   REMARKS
MENA           CLOUDY    63  59  88 SE7G18    29.76F
MOUNT IDA      CLOUDY    62  55  77 SE10G18   29.78F
6HR MIN TEMP:  53; 6HR MAX TEMP:  63; 6HR PCP: TRACE;

$$

ARZ009-017-025-026-028-230700-
NORTHEAST ARKANSAS

CITY           SKY/WX    TMP DP  RH WIND       PRES   REMARKS
CORNING        CLOUDY    50  45  81 SE9       29.90F
JONESBORO      MOCLDY    51  43  74 E5        29.90F
6HR MIN TEMP:  47; 6HR MAX TEMP:  59;

NEWPORT        PTCLDY    48  45  90 SE7       29.89F
6HR MIN TEMP:  48; 6HR MAX TEMP:  56;

WALNUT RIDGE   PTCLDY    52  43  71 SE9       29.87F
6HR MIN TEMP:  48; 6HR MAX TEMP:  57;

BLYTHEVILLE    CLEAR     61  46  57 S9        29.93F
6HR MIN TEMP:  59; 6HR MAX TEMP:  68;

$$

ARZ022-023-033-042-044-230700-
CENTRAL ARKANSAS

CITY           SKY/WX    TMP DP  RH WIND       PRES   REMARKS
LITTLE ROCK    CLOUDY    58  50  75 SE9       29.87F
6HR MIN TEMP:  56; 6HR MAX TEMP:  60;

N LITTLE ROCK  MOCLDY    58  53  84 S9        29.87F
6HR MIN TEMP:  56; 6HR MAX TEMP:  58;

JACKSONVILLE   CLOUDY    59  51  74 VRB6      29.86F
6HR MIN TEMP:  50; 6HR MAX TEMP:  59;

SEARCY         MOCLDY    50  48  93 CALM      29.89F
6HR MIN TEMP:  48; 6HR MAX TEMP:  56;

HOT SPRINGS    LGT RAIN  61  54  77 SE10      29.84F
6HR MIN TEMP:  59; 6HR MAX TEMP:  61; 6HR PCP: TRACE;

RUSSELLVILLE   CLOUDY    56  52  86 VRB6      29.81F
6HR MIN TEMP:  51; 6HR MAX TEMP:  56;

CLINTON        CLOUDY    48  48 100 CALM      29.87F FOG
$$

ARZ036-230700-
EAST ARKANSAS

CITY           SKY/WX    TMP DP  RH WIND       PRES   REMARKS
WEST MEMPHIS   CLEAR     53  49  86 SE9       29.90F
6HR MIN TEMP:  50; 6HR MAX TEMP:  58;

$$

ARZ050-053-066-070-073-230700-
SOUTHWEST ARKANSAS

CITY           SKY/WX    TMP DP  RH WIND       PRES   REMARKS
ARKADELPHIA    LGT RAIN  60  58  93 CALM      29.84F
6HR MIN TEMP:  60; 6HR MAX TEMP:  62; 6HR PCP:  0.01;

CAMDEN         LGT RAIN  59  54  82 NE3       29.84F
TEXARKANA      RAIN      60  60 100 SE10      29.79F FOG
6HR MIN TEMP:  60; 6HR MAX TEMP:  64; 6HR PCP:  0.43;

EL DORADO      HVY RAIN  59  56  89 NE6       29.83F FOG
6HR MIN TEMP:  59; 6HR MAX TEMP:  63; 6HR PCP:  0.04;

DE QUEEN       CLOUDY    60  58  92 SE14G22   29.73F
6HR MIN TEMP:  59; 6HR MAX TEMP:  61; 6HR PCP:  0.03;

$$

ARZ056-057-069-230700-
SOUTHEAST ARKANSAS

CITY           SKY/WX    TMP DP  RH WIND       PRES   REMARKS
PINE BLUFF     CLOUDY    58  51  78 SE8       29.87F
6HR MIN TEMP:  56; 6HR MAX TEMP:  63;

STUTTGART      CLOUDY    55  48  76 SE8       29.89F
6HR MIN TEMP:  55; 6HR MAX TEMP:  57;

MONTICELLO     MOCLDY    59  51  75 E7        29.87F
6HR MIN TEMP:  59; 6HR MAX TEMP:  63;


$$




USA.gov is the U.S. government's official web portal to all federal, state and local government web resources and services.